DELTA 1 DEB, 7057

Orbit data source: Space-Track

DELTA 1 DEB, 7057 is space debris in SSO originally from a launch on Tue, 06 Nov 1973 UTC launched from the Air Force Western Test Range (AFWTR). Debris objects in space refer to the collection of defunct objects orbiting the Earth. Examples of debris include non-operational satellites, rocket bodies, and fragments generated from explosions, collisions, or faulty payload assembly.

Loading next visibility...
Identifier
7057, 1973-086AZ
Orbit
SSO
Country
Flag of USUS
Related business
Manufacturer
Unknown
Mission
Spacecraft
Bus & Motor
Unknown
Mass
Unknown
Launch date (UTC)
1973-11-06 (53 years ago)
Launch vehicle
Unknown
Launch site
Air Force Western Test Range (AFWTR)
Object type
Payload
Rocket body
Debris
Shape & HBR
Unknown shape, 0.5 m
Radar Cross Section
Medium (>0.1 m² and <1 m²)

Expand to show TLE details & history
Last TLE update: 20 hours ago

TLE from 20 hours ago
0 DELTA 1 DEB
1 07057U 73086AZ  26206.57471005 -.00000037  00000-0  75044-4 0  9993
2 07057 102.4234 229.6715 0034024 251.4838 277.8447 12.33042583372634
Epoch: 2026-07-25T13:47Z
TLE epoch observation values (Epoch: 2026-07-25T13:47:34.948Z)
Latitude
10.75271°
Longitude
-98.12319°
Altitude
1,534.427 km
Speed
7.101 km/s
True Right ascension
03h 28m 13s
True Declination
10° 41' 46"
Sunlit
Object was in daylight at epoch
Visualization orbit readout
Latitude
Unknown
Longitude
Unknown
Altitude
Unknown
Speed
Unknown
Apparent Right ascension
Unknown
Apparent Declination
Unknown
Sunlit
N/A
Visualization observer readout
Local Sidereal Time
23:17:39
Azimuth
Unknown
Elevation
Unknown
Doppler factor
Unknown
Orbital elements
Apogee altitude
1,560.764 km
Perigee altitude
1,506.925 km
Semi-major axis
7,911.981 km
Eccentricity
0.0034
Inclination
102.4234°
RAAN
229.6715°
Arg. of periapsis
251.4838°
True anomaly
277.45824°
Mean anomaly
277.8447°
Eccentric anomaly
277.65149°
Mean motion
3.08401 °/min
Orbital period
116.73 mins
BSTAR
0.000075044
Loading maneuver chart data...
Computing Atmospheric mass density...
Loading historical data...
Loading historical data...
Loading historical data...
Loading historical data...
Loading historical data...
Loading historical data...
Loading historical data...

Documentation

Showing up to 5 results
|